World > North America > United States > Illinois

Hourly Hawthorn Woods, IL Regional Weather

Feedback E-mail the Weather

Quick WX

Hawthorn Woods, IL Weather Maps

°F °C°F °C
Hawthorn Woods Weather Map
UTC Time: 6/30/2022, 17:11
Your Time:

Hawthorn Woods, IL Regional Weather

Expires:202206301800;;448877
ASUS43 KLOT 301709
RWRIL 

ILLINOIS REGIONAL WEATHER ROUNDUP
NATIONAL WEATHER SERVICE CHICAGO/ROMEOVILLE IL
1200 PM CDT THU JUN 30 2022

NOTE: "FAIR" INDICATES FEW OR NO CLOUDS BELOW 12,000 FEET WITH NO
SIGNIFICANT WEATHER AND/OR OBSTRUCTIONS TO VISIBILITY.

* THESE STATIONS ARE NOT UNDER NWS QUALITY CONTROL. THEY ALSO MAY NOT
  REPORT WEATHER SUCH AS PRECIPITATION OR FOG.


ILZ005-006-012>014-019>023-301800-
NORTHEAST ILLINOIS
  
CITY           SKY/WX    TMP DP  RH WIND       PRES   REMARKS
CHICAGO-OHARE  PTSUNNY   88  59  37 SW14G26   30.03F HX  87           
CHICAGO-MIDWAY PTSUNNY   88  59  37 SW16G24   30.04F HX  87           
AURORA         MOSUNNY   85  61  44 S16       30.03F HX  85           
JOLIET*        SUNNY     87  62  42 SW13G20   30.06F HX  87           
WAUKEGAN       PTSUNNY   88  62  41 SW15G25   30.00F HX  88           
DUPAGE AIRPORT MOSUNNY   87  61  41 S15G28    30.03F HX  87           
KANKAKEE*      SUNNY     84  61  45 SW13G21   30.09F HX  84           
WHEELING       MOSUNNY   89  59  36 SW16G25   30.03F HX  88           
MORRIS*        SUNNY     85  63  47 SW15      30.05F HX  86           
ROMEOVILLE*    SUNNY     85  62  46 SW13      30.05F HX  86           
LANSING*       SUNNY     86  60  41 SW17G23   30.08S HX  86           
NORTHERLY ISL*   N/A     85  54  34 SW10        N/A  HX  83           
$$


SKY/WX - Weather  TMP - Temperature  DP - Dew Point  RH - Humidity
WIND - Wind Direction/Speed PRES - Barometric Pressure VSB - Visibility
WCI - Wind Chill Index E13G22 Wind - East Wind 13 mph/Gusts of 22 mph

Trending Headlines

Hawthorn Woods Radar Loop



Hawthorn Woods Quick Facts


National Two Day Weather Forecast


E-mail the Hawthorn Woods Weather Forecast

Voice your opinion or tell us about page issues...